Погода в Мальдонадо

Уругвай     34°52′47″S   54°58′02″W
темп.,
°C
ветер,
м/с
пор.,
м/с
влажн.,
%
обл.,
%
осадки,
мм/ч
давл.,
гПа
погр.,
м
21 октября, чт
чт2100:00+14св812800 0.0 1020414
03:00+13ссв710810 0.0 1019317
06:00+13с45790 0.0 1019204
09:00+15с34740 0.0 1020249
12:00+17вюв33650 0.0 1018171
15:00+17в77720 0.0 1016225
18:00+17всв89770 0.0 1014243
21:00+15св811810 0.0 1015255
22 октября, пт
пт2200:00+14ссв69825 0.0 1015227
03:00+14ссв698296 0.0 1013210
06:00+15с4577100 0.0 1014154
09:00+16сз227018 0.0 1015165
12:00+17юз22727 0.0 1014176
15:00+18всв557342 0.0 1011143
18:00+18всв5782100 0.6 1010125
21:00+16ююв5689100 3.5 1012292
23 октября, сб
сб2300:00+16юв7787100 0.6 1011413
03:00+16в568465 0.6 1009420
06:00+15св2283100 0.0 1008175
09:00+16св2276100 0.0 1009133
12:00+16юз5584100 0.0 1009416
15:00+16юз4483100 0.1 1007383
18:00+16ююз3485100 0.0 1008378
21:00+16юз23854 0.1 1009362
24 октября, вс
вс2400:00+16ююз348542 0.0 1010368
03:00+16ю44733 0.0 1010425
06:00+16ю66742 0.0 1011813
09:00+15ююз55754 0.0 1013602
12:00+15юз45730 0.0 1013489
15:00+16юз45690 0.0 1012424
18:00+16юз12620 0.0 1012282
21:00+15ссв56765 0.0 1012141
25 октября, пн
пн2500:00+15с812780 0.0 1010263
03:00+17ссз917720 0.0 1008403
06:00+18сз1322690 0.0 1008483
09:00+18зсз1320670 0.0 1010554
12:00+18з11147335 0.0 1011309
15:00+18зюз710715 0.0 1012233
18:00+19зюз45660 0.0 101348
21:00+17юв99720 0.0 1016389